owner,sensor,date,latitude,longitude,vertical_datum,wind_speed,wind_to_direction,wind_speed_of_gust,qcFlag 
TABS,ioos:station:wmo:42046:1,2015-02-01T00:00:00Z,27.8903,-94.0367,4.0,7.652875277,118.7422666,8.83,'11111222,11111222,11111222' 
TABS,ioos:station:wmo:42046:1,2015-02-01T00:30:00Z,27.8903,-94.0367,4.0,7.192002503,126.9180318,8.44,'11111222,11111222,11111222' 
TABS,ioos:station:wmo:42046:1,2015-02-01T01:00:00Z,27.8903,-94.0367,4.0,7.72658398,138.2004983,8.99,'11111222,11111222,11111222' 
TABS,ioos:station:wmo:42046:1,2015-02-01T01:30:00Z,27.8903,-94.0367,4.0,6.98140387,141.9813568,8.06,'11111222,11111222,11111222' 
TABS,ioos:station:wmo:42046:1,2015-02-01T02:00:00Z,27.8903,-94.0367,4.0,7.51479208,138.290788,8.79,'11111222,11111222,11111222' 
TABS,ioos:station:wmo:42046:1,2015-02-01T02:30:00Z,27.8903,-94.0367,4.0,7.366437402,146.180789,8.63,'11111222,11111222,11111222' 
TABS,ioos:station:wmo:42046:1,2015-02-01T03:00:00Z,27.8903,-94.0367,4.0,7.24735124,150.2161753,8.65,'11111222,11111222,11111222' 
TABS,ioos:station:wmo:42046:1,2015-02-01T03:30:00Z,27.8903,-94.0367,4.0,6.89237985,157.1182215,8.15,'11111222,11111222,11111222' 
TABS,ioos:station:wmo:42046:1,2015-02-01T04:00:00Z,27.8903,-94.0367,4.0,7.017898546,152.4128455,7.86,'11111222,11111222,11111222' 
TABS,ioos:station:wmo:42046:1,2015-02-01T04:30:00Z,27.8903,-94.0367,4.0,7.132215645,150.7037903,8.07,'11111222,11111222,11111222' 
TABS,ioos:station:wmo:42046:1,2015-02-01T05:00:00Z,27.8903,-94.0367,4.0,6.23994391,162.4654664,7.32,'11111222,11111222,11111222' 
TABS,ioos:station:wmo:42046:1,2015-02-01T05:30:00Z,27.8903,-94.0367,4.0,6.870007278,160.3520424,7.72,'11111222,11111222,11111222' 
TABS,ioos:station:wmo:42046:1,2015-02-01T06:00:00Z,27.8903,-94.0367,4.0,6.760362416,169.1723278,7.8,'11111222,11111222,11111222' 
TABS,ioos:station:wmo:42046:1,2015-02-01T06:30:00Z,27.8903,-94.0367,4.0,6.501269107,171.5086845,7.9,'11111222,11111222,11111222' 
TABS,ioos:station:wmo:42046:1,2015-02-01T07:00:00Z,27.8903,-94.0367,4.0,6.678390525,167.8994896,7.79,'11111222,11111222,11111222' 
TABS,ioos:station:wmo:42046:1,2015-02-01T07:30:00Z,27.8903,-94.0367,4.0,6.611089169,168.5713282,7.64,'11111222,11111222,11111222' 
TABS,ioos:station:wmo:42046:1,2015-02-01T08:00:00Z,27.8903,-94.0367,4.0,6.891618097,170.6472531,8.2,'11111222,11111222,11111222' 
TABS,ioos:station:wmo:42046:1,2015-02-01T08:30:00Z,27.8903,-94.0367,4.0,7.510825521,162.1683945,8.74,'11111222,11111222,11111222' 
TABS,ioos:station:wmo:42046:1,2015-02-01T09:00:00Z,27.8903,-94.0367,4.0,8.04052859,173.5734724,9.26,'11111222,11111222,11111222' 
TABS,ioos:station:wmo:42046:1,2015-02-01T09:30:00Z,27.8903,-94.0367,4.0,7.650777738,173.3953904,9.07,'11111222,11111222,11111222' 
TABS,ioos:station:wmo:42046:1,2015-02-01T10:00:00Z,27.8903,-94.0367,4.0,10.51667723,170.7528688,12.13,'11111222,11111222,11111222' 
TABS,ioos:station:wmo:42046:1,2015-02-01T10:30:00Z,27.8903,-94.0367,4.0,9.772717125,171.289728,11.15,'11111222,11111222,11111222' 
TABS,ioos:station:wmo:42046:1,2015-02-01T11:00:00Z,27.8903,-94.0367,4.0,9.305229712,158.0387767,10.39,'11111222,11111222,11111222' 
TABS,ioos:station:wmo:42046:1,2015-02-01T11:30:00Z,27.8903,-94.0367,4.0,10.10763078,158.5883258,12.33,'11111222,11111222,11111222' 
TABS,ioos:station:wmo:42046:1,2015-02-01T12:00:00Z,27.8903,-94.0367,4.0,9.905230941,162.3701715,11.44,'11111222,11111222,11111222' 
TABS,ioos:station:wmo:42046:1,2015-02-01T12:30:00Z,27.8903,-94.0367,4.0,9.907582954,165.9219222,12.15,'11111222,11111222,11111222' 
TABS,ioos:station:wmo:42046:1,2015-02-01T13:00:00Z,27.8903,-94.0367,4.0,10.77933208,175.1041557,13.0,'11111222,11111222,11111222' 
TABS,ioos:station:wmo:42046:1,2015-02-01T13:30:00Z,27.8903,-94.0367,4.0,8.831636315,181.1031614,11.6,'11111222,11111222,11111222' 
TABS,ioos:station:wmo:42046:1,2015-02-01T14:00:00Z,27.8903,-94.0367,4.0,7.700935008,179.1073636,8.97,'11111222,11111222,11111222' 
TABS,ioos:station:wmo:42046:1,2015-02-01T14:30:00Z,27.8903,-94.0367,4.0,6.487410886,182.7391177,8.22,'11111222,11111222,11111222' 
TABS,ioos:station:wmo:42046:1,2015-02-01T15:00:00Z,27.8903,-94.0367,4.0,5.761466827,186.8785135,6.81,'11111222,11111222,11111222' 
TABS,ioos:station:wmo:42046:1,2015-02-01T15:30:00Z,27.8903,-94.0367,4.0,6.876081733,183.9195889,7.98,'11111222,11111222,11111222' 
TABS,ioos:station:wmo:42046:1,2015-02-01T16:00:00Z,27.8903,-94.0367,4.0,6.87817563,191.9145819,7.84,'11111222,11111222,11111222' 
TABS,ioos:station:wmo:42046:1,2015-02-01T16:30:00Z,27.8903,-94.0367,4.0,6.511098218,191.5172083,7.7,'11111222,11111222,11111222' 
TABS,ioos:station:wmo:42046:1,2015-02-01T17:00:00Z,27.8903,-94.0367,4.0,5.294317709,201.3795462,6.43,'11111222,11111222,11111222' 
TABS,ioos:station:wmo:42046:1,2015-02-01T17:30:00Z,27.8903,-94.0367,4.0,4.792827975,186.7100316,5.56,'11111222,11111222,11111222' 
TABS,ioos:station:wmo:42046:1,2015-02-01T18:00:00Z,27.8903,-94.0367,4.0,5.621076409,178.8789086,6.41,'11111222,11111222,11111222' 
TABS,ioos:station:wmo:42046:1,2015-02-01T18:30:00Z,27.8903,-94.0367,4.0,6.498499827,184.324522,7.42,'11111222,11111222,11111222' 
TABS,ioos:station:wmo:42046:1,2015-02-01T19:00:00Z,27.8903,-94.0367,4.0,5.725879845,186.4177392,6.69,'11111222,11111222,11111222' 
TABS,ioos:station:wmo:42046:1,2015-02-01T19:30:00Z,27.8903,-94.0367,4.0,6.188190366,185.4712536,6.99,'11111222,11111222,11111222' 
TABS,ioos:station:wmo:42046:1,2015-02-01T20:00:00Z,27.8903,-94.0367,4.0,6.806496896,185.0574472,8.15,'11111222,11111222,11111222' 
TABS,ioos:station:wmo:42046:1,2015-02-01T20:30:00Z,27.8903,-94.0367,4.0,6.225271078,190.5519953,7.71,'11111222,11111222,11111222' 
TABS,ioos:station:wmo:42046:1,2015-02-01T21:00:00Z,27.8903,-94.0367,4.0,6.335250587,190.4587268,7.36,'11111222,11111222,11111222' 
TABS,ioos:station:wmo:42046:1,2015-02-01T21:30:00Z,27.8903,-94.0367,4.0,5.505678886,193.657821,6.38,'11111222,11111222,11111222' 
TABS,ioos:station:wmo:42046:1,2015-02-01T22:00:00Z,27.8903,-94.0367,4.0,5.096165225,202.7410999,6.16,'11111222,11111222,11111222' 
TABS,ioos:station:wmo:42046:1,2015-02-01T22:30:00Z,27.8903,-94.0367,4.0,4.644243749,201.8702962,5.25,'11111222,11111222,11111222' 
TABS,ioos:station:wmo:42046:1,2015-02-01T23:00:00Z,27.8903,-94.0367,4.0,4.53927307,206.2829572,5.14,'11111222,11111222,11111222' 
TABS,ioos:station:wmo:42046:1,2015-02-01T23:30:00Z,27.8903,-94.0367,4.0,4.125542389,212.2263386,4.7,'11111222,11111222,11111222' 
TABS,ioos:station:wmo:42046:1,2015-02-02T00:00:00Z,27.8903,-94.0367,4.0,3.879188059,215.4519562,4.56,'11111222,11111222,11111222' 
TABS,ioos:station:wmo:42046:1,2015-02-02T00:30:00Z,27.8903,-94.0367,4.0,4.165153058,224.3192043,4.77,'11111222,11111222,11111222' 
TABS,ioos:station:wmo:42046:1,2015-02-02T01:00:00Z,27.8903,-94.0367,4.0,3.582736384,219.1094926,4.3,'11111222,11111222,11111222' 
TABS,ioos:station:wmo:42046:1,2015-02-02T01:30:00Z,27.8903,-94.0367,4.0,3.220341597,229.5338858,3.67,'11111222,11111222,11111222' 
TABS,ioos:station:wmo:42046:1,2015-02-02T02:00:00Z,27.8903,-94.0367,4.0,2.788906596,222.3843565,3.18,'11111222,11111222,11111222' 
TABS,ioos:station:wmo:42046:1,2015-02-02T02:30:00Z,27.8903,-94.0367,4.0,3.101612484,237.642228,3.55,'11111222,11111222,11111222' 
TABS,ioos:station:wmo:42046:1,2015-02-02T03:00:00Z,27.8903,-94.0367,4.0,3.282834141,234.4218277,3.76,'11111222,11111222,11111222' 
TABS,ioos:station:wmo:42046:1,2015-02-02T03:30:00Z,27.8903,-94.0367,4.0,3.208145882,249.7575476,3.8,'11111222,11111222,11111222' 
TABS,ioos:station:wmo:42046:1,2015-02-02T04:00:00Z,27.8903,-94.0367,4.0,3.784507894,276.5240841,6.18,'11111222,11111222,11111222' 
TABS,ioos:station:wmo:42046:1,2015-02-02T04:30:00Z,27.8903,-94.0367,4.0,6.329059962,297.5771743,7.67,'11111222,11111222,11111222' 
TABS,ioos:station:wmo:42046:1,2015-02-02T05:00:00Z,27.8903,-94.0367,4.0,14.25957222,344.3359119,16.94,'11111222,11111222,11111222' 
TABS,ioos:station:wmo:42046:1,2015-02-02T05:30:00Z,27.8903,-94.0367,4.0,13.19676097,356.3503409,15.51,'11111222,11111222,11111222' 
TABS,ioos:station:wmo:42046:1,2015-02-02T06:00:00Z,27.8903,-94.0367,4.0,13.32547935,355.2647247,15.64,'11111222,11111222,11111222' 
TABS,ioos:station:wmo:42046:1,2015-02-02T06:30:00Z,27.8903,-94.0367,4.0,12.58237259,3.417048184,14.48,'11111222,11111222,11111222' 
TABS,ioos:station:wmo:42046:1,2015-02-02T07:00:00Z,27.8903,-94.0367,4.0,12.79153626,4.618349301,14.95,'11111222,11111222,11111222' 
TABS,ioos:station:wmo:42046:1,2015-02-02T07:30:00Z,27.8903,-94.0367,4.0,12.34159228,11.35521887,14.85,'11111222,11111222,11111222' 
TABS,ioos:station:wmo:42046:1,2015-02-02T08:00:00Z,27.8903,-94.0367,4.0,12.36462697,14.32820769,14.08,'11111222,11111222,11111222' 
TABS,ioos:station:wmo:42046:1,2015-02-02T08:30:00Z,27.8903,-94.0367,4.0,12.54636601,23.33624285,14.5,'11111222,11111222,11111222' 
TABS,ioos:station:wmo:42046:1,2015-02-02T09:00:00Z,27.8903,-94.0367,4.0,12.61923136,14.26725178,15.49,'11111222,11111222,11111222' 
TABS,ioos:station:wmo:42046:1,2015-02-02T09:30:00Z,27.8903,-94.0367,4.0,13.201534,12.86750792,15.35,'11111222,11111222,11111222' 
TABS,ioos:station:wmo:42046:1,2015-02-02T10:00:00Z,27.8903,-94.0367,4.0,12.8561775,9.762486034,16.28,'11111222,11111222,11111222' 
TABS,ioos:station:wmo:42046:1,2015-02-02T10:30:00Z,27.8903,-94.0367,4.0,12.85326807,12.26264071,15.84,'11111222,11111222,11111222' 
TABS,ioos:station:wmo:42046:1,2015-02-02T11:00:00Z,27.8903,-94.0367,4.0,13.66989759,12.4194595,17.34,'11111222,11111222,11111222' 
TABS,ioos:station:wmo:42046:1,2015-02-02T11:30:00Z,27.8903,-94.0367,4.0,13.62484862,16.10688561,16.36,'11111222,11111222,11111222' 
TABS,ioos:station:wmo:42046:1,2015-02-02T12:00:00Z,27.8903,-94.0367,4.0,12.63322603,15.04802998,14.65,'11111222,11111222,11111222' 
TABS,ioos:station:wmo:42046:1,2015-02-02T12:30:00Z,27.8903,-94.0367,4.0,12.67493984,14.15659934,15.39,'11111222,11111222,11111222' 
TABS,ioos:station:wmo:42046:1,2015-02-02T13:00:00Z,27.8903,-94.0367,4.0,11.80000424,12.728699,14.01,'11111222,11111222,11111222' 
TABS,ioos:station:wmo:42046:1,2015-02-02T13:30:00Z,27.8903,-94.0367,4.0,12.23354405,14.19502814,14.81,'11111222,11111222,11111222' 
TABS,ioos:station:wmo:42046:1,2015-02-02T14:00:00Z,27.8903,-94.0367,4.0,12.38032714,15.84343625,14.82,'11111222,11111222,11111222' 
TABS,ioos:station:wmo:42046:1,2015-02-02T14:30:00Z,27.8903,-94.0367,4.0,12.05443072,14.50864972,14.84,'11111222,11111222,11111222' 
TABS,ioos:station:wmo:42046:1,2015-02-02T15:00:00Z,27.8903,-94.0367,4.0,11.69325019,21.89213677,14.35,'11111222,11111222,11111222' 
TABS,ioos:station:wmo:42046:1,2015-02-02T15:30:00Z,27.8903,-94.0367,4.0,11.01050862,26.30878838,13.27,'11111222,11111222,11111222' 
TABS,ioos:station:wmo:42046:1,2015-02-02T16:00:00Z,27.8903,-94.0367,4.0,11.93731963,29.39930752,14.26,'11111222,11111222,11111222' 
TABS,ioos:station:wmo:42046:1,2015-02-02T16:30:00Z,27.8903,-94.0367,4.0,11.1296451,29.67436259,13.16,'11111222,11111222,11111222' 
TABS,ioos:station:wmo:42046:1,2015-02-02T17:00:00Z,27.8903,-94.0367,4.0,11.45550086,31.76122044,13.35,'11111222,11111222,11111222' 
TABS,ioos:station:wmo:42046:1,2015-02-02T17:30:00Z,27.8903,-94.0367,4.0,10.52591564,29.2922411,12.87,'11111222,11111222,11111222' 
TABS,ioos:station:wmo:42046:1,2015-02-02T18:00:00Z,27.8903,-94.0367,4.0,10.82266141,31.78063032,13.24,'11111222,11111222,11111222' 
TABS,ioos:station:wmo:42046:1,2015-02-02T18:30:00Z,27.8903,-94.0367,4.0,10.15955216,33.31438221,12.44,'11111222,11111222,11111222' 
TABS,ioos:station:wmo:42046:1,2015-02-02T19:00:00Z,27.8903,-94.0367,4.0,9.743972496,28.90583253,12.47,'11111222,11111222,11111222' 
TABS,ioos:station:wmo:42046:1,2015-02-02T19:30:00Z,27.8903,-94.0367,4.0,9.312019115,25.71173644,10.77,'11111222,11111222,11111222' 
TABS,ioos:station:wmo:42046:1,2015-02-02T20:00:00Z,27.8903,-94.0367,4.0,8.899398856,24.77936877,11.12,'11111222,11111222,11111222' 
TABS,ioos:station:wmo:42046:1,2015-02-02T20:30:00Z,27.8903,-94.0367,4.0,8.973070823,27.76421308,11.07,'11111222,11111222,11111222' 
TABS,ioos:station:wmo:42046:1,2015-02-02T21:00:00Z,27.8903,-94.0367,4.0,9.221740617,23.45123104,12.28,'11111222,11111222,11111222' 
TABS,ioos:station:wmo:42046:1,2015-02-02T21:30:00Z,27.8903,-94.0367,4.0,8.698557352,29.77728096,10.73,'11111222,11111222,11111222' 
TABS,ioos:station:wmo:42046:1,2015-02-02T22:00:00Z,27.8903,-94.0367,4.0,8.443914969,27.20204499,11.53,'11111222,11111222,11111222' 
TABS,ioos:station:wmo:42046:1,2015-02-02T22:30:00Z,27.8903,-94.0367,4.0,8.381932951,33.12101161,10.86,'11111222,11111222,11111222' 
TABS,ioos:station:wmo:42046:1,2015-02-02T23:00:00Z,27.8903,-94.0367,4.0,8.690138089,39.34941083,11.29,'11111222,11111222,11111222' 
TABS,ioos:station:wmo:42046:1,2015-02-02T23:30:00Z,27.8903,-94.0367,4.0,7.838016331,36.75264141,10.36,'11111222,11111222,11111222' 
TABS,ioos:station:wmo:42046:1,2015-02-03T00:00:00Z,27.8903,-94.0367,4.0,8.188406438,28.44265165,9.87,'11111222,11111222,11111222' 
TABS,ioos:station:wmo:42046:1,2015-02-03T00:30:00Z,27.8903,-94.0367,4.0,6.807481179,35.67436126,9.11,'11111222,11111222,11111222' 
TABS,ioos:station:wmo:42046:1,2015-02-03T01:00:00Z,27.8903,-94.0367,4.0,7.076072357,36.61049298,8.83,'11111222,11111222,11111222' 
TABS,ioos:station:wmo:42046:1,2015-02-03T01:30:00Z,27.8903,-94.0367,4.0,6.685992821,26.94802135,8.85,'11111222,11111222,11111222' 
TABS,ioos:station:wmo:42046:1,2015-02-03T02:00:00Z,27.8903,-94.0367,4.0,7.882366396,37.42204123,9.9,'11111222,11111222,11111222' 
TABS,ioos:station:wmo:42046:1,2015-02-03T02:30:00Z,27.8903,-94.0367,4.0,7.028641405,44.99968431,9.13,'11111222,11111222,11111222' 
TABS,ioos:station:wmo:42046:1,2015-02-03T03:00:00Z,27.8903,-94.0367,4.0,7.310164157,47.27256824,9.02,'11111222,11111222,11111222' 
TABS,ioos:station:wmo:42046:1,2015-02-03T03:30:00Z,27.8903,-94.0367,4.0,7.353924123,45.10986811,9.74,'11111222,11111222,11111222' 
TABS,ioos:station:wmo:42046:1,2015-02-03T04:00:00Z,27.8903,-94.0367,4.0,7.415477058,35.7260038,9.86,'11111222,11111222,11111222' 
TABS,ioos:station:wmo:42046:1,2015-02-03T04:30:00Z,27.8903,-94.0367,4.0,6.720751446,40.11089964,9.03,'11111222,11111222,11111222' 
TABS,ioos:station:wmo:42046:1,2015-02-03T05:00:00Z,27.8903,-94.0367,4.0,6.789167843,45.95452333,8.85,'11111222,11111222,11111222' 
TABS,ioos:station:wmo:42046:1,2015-02-03T05:30:00Z,27.8903,-94.0367,4.0,8.052136362,48.17113411,11.57,'11111222,11111222,11111222' 
TABS,ioos:station:wmo:42046:1,2015-02-03T06:00:00Z,27.8903,-94.0367,4.0,8.154415982,65.66616719,9.8,'11111222,11111222,11111222' 
TABS,ioos:station:wmo:42046:1,2015-02-03T06:30:00Z,27.8903,-94.0367,4.0,7.261253335,59.09002403,9.3,'11111222,11111222,11111222' 
TABS,ioos:station:wmo:42046:1,2015-02-03T07:00:00Z,27.8903,-94.0367,4.0,7.252675368,59.04944323,9.44,'11111222,11111222,11111222' 
TABS,ioos:station:wmo:42046:1,2015-02-03T07:30:00Z,27.8903,-94.0367,4.0,6.673087741,64.24097683,8.36,'11111222,11111222,11111222' 
TABS,ioos:station:wmo:42046:1,2015-02-03T08:00:00Z,27.8903,-94.0367,4.0,6.454595262,64.58590678,8.84,'11111222,11111222,11111222' 
TABS,ioos:station:wmo:42046:1,2015-02-03T08:30:00Z,27.8903,-94.0367,4.0,7.057258675,59.32828818,9.06,'11111222,11111222,11111222' 
TABS,ioos:station:wmo:42046:1,2015-02-03T09:00:00Z,27.8903,-94.0367,4.0,6.619705432,62.46685021,8.99,'11111222,11111222,11111222' 
TABS,ioos:station:wmo:42046:1,2015-02-03T09:30:00Z,27.8903,-94.0367,4.0,5.621103095,65.62316747,7.4,'11111222,11111222,11111222' 
TABS,ioos:station:wmo:42046:1,2015-02-03T10:00:00Z,27.8903,-94.0367,4.0,6.88698047,55.70965786,8.92,'11111222,11111222,11111222' 
TABS,ioos:station:wmo:42046:1,2015-02-03T10:30:00Z,27.8903,-94.0367,4.0,6.13424812,50.15822403,8.12,'11111222,11111222,11111222' 
TABS,ioos:station:wmo:42046:1,2015-02-03T11:00:00Z,27.8903,-94.0367,4.0,6.276631262,56.76531277,7.76,'11111222,11111222,11111222' 
TABS,ioos:station:wmo:42046:1,2015-02-03T11:30:00Z,27.8903,-94.0367,4.0,6.755538469,59.4868034,8.83,'11111222,11111222,11111222' 
TABS,ioos:station:wmo:42046:1,2015-02-03T12:00:00Z,27.8903,-94.0367,4.0,7.123377008,66.85384985,8.88,'11111222,11111222,11111222' 
TABS,ioos:station:wmo:42046:1,2015-02-03T12:30:00Z,27.8903,-94.0367,4.0,7.444098334,71.27259954,9.26,'11111222,11111222,11111222' 
TABS,ioos:station:wmo:42046:1,2015-02-03T13:00:00Z,27.8903,-94.0367,4.0,7.59692701,68.53434371,9.16,'11111222,11111222,11111222' 
TABS,ioos:station:wmo:42046:1,2015-02-03T13:30:00Z,27.8903,-94.0367,4.0,7.014855665,72.49454809,8.5,'11111222,11111222,11111222' 
TABS,ioos:station:wmo:42046:1,2015-02-03T14:00:00Z,27.8903,-94.0367,4.0,7.440698892,80.56259745,9.18,'11111222,11111222,11111222' 
TABS,ioos:station:wmo:42046:1,2015-02-03T14:30:00Z,27.8903,-94.0367,4.0,8.530586146,89.32791412,9.97,'11111222,11111222,11111222' 
TABS,ioos:station:wmo:42046:1,2015-02-03T15:00:00Z,27.8903,-94.0367,4.0,8.018883962,83.05182754,9.22,'11111222,11111222,11111222' 
TABS,ioos:station:wmo:42046:1,2015-02-03T15:30:00Z,27.8903,-94.0367,4.0,7.913943391,76.03360517,9.91,'11111222,11111222,11111222' 
TABS,ioos:station:wmo:42046:1,2015-02-03T16:00:00Z,27.8903,-94.0367,4.0,5.921021871,91.06491346,7.55,'11111222,11111222,11111222' 
TABS,ioos:station:wmo:42046:1,2015-02-03T16:30:00Z,27.8903,-94.0367,4.0,6.289117585,94.46898869,7.58,'11111222,11111222,11111222' 
TABS,ioos:station:wmo:42046:1,2015-02-03T17:00:00Z,27.8903,-94.0367,4.0,6.160129869,89.62753467,7.67,'11111222,11111222,11111222' 
TABS,ioos:station:wmo:42046:1,2015-02-03T17:30:00Z,27.8903,-94.0367,4.0,6.56336042,88.16604585,8.64,'11111222,11111222,11111222' 
TABS,ioos:station:wmo:42046:1,2015-02-03T18:00:00Z,27.8903,-94.0367,4.0,7.288895664,87.16858402,9.14,'11111222,11111222,11111222' 
TABS,ioos:station:wmo:42046:1,2015-02-03T18:30:00Z,27.8903,-94.0367,4.0,7.723470722,80.61045348,9.02,'11111222,11111222,11111222' 
TABS,ioos:station:wmo:42046:1,2015-02-03T19:00:00Z,27.8903,-94.0367,4.0,7.716540676,72.26909253,9.39,'11111222,11111222,11111222' 
TABS,ioos:station:wmo:42046:1,2015-02-03T19:30:00Z,27.8903,-94.0367,4.0,7.531228319,78.1227034,8.7,'11111222,11111222,11111222' 
TABS,ioos:station:wmo:42046:1,2015-02-03T20:00:00Z,27.8903,-94.0367,4.0,8.248502894,74.0255965,9.96,'11111222,11111222,11111222' 
TABS,ioos:station:wmo:42046:1,2015-02-03T20:30:00Z,27.8903,-94.0367,4.0,7.616153885,72.6590584,9.04,'11111222,11111222,11111222' 
TABS,ioos:station:wmo:42046:1,2015-02-03T21:00:00Z,27.8903,-94.0367,4.0,8.233213224,63.52795601,9.29,'11111222,11111222,11111222' 
TABS,ioos:station:wmo:42046:1,2015-02-03T21:30:00Z,27.8903,-94.0367,4.0,9.000022222,71.20230237,10.32,'11111222,11111222,11111222' 
TABS,ioos:station:wmo:42046:1,2015-02-03T22:00:00Z,27.8903,-94.0367,4.0,8.830362393,66.86068139,10.46,'11111222,11111222,11111222' 
TABS,ioos:station:wmo:42046:1,2015-02-03T22:30:00Z,27.8903,-94.0367,4.0,9.313565375,72.24557428,10.92,'11111222,11111222,11111222' 
TABS,ioos:station:wmo:42046:1,2015-02-03T23:00:00Z,27.8903,-94.0367,4.0,9.69820602,69.09784847,11.24,'11111222,11111222,11111222' 
TABS,ioos:station:wmo:42046:1,2015-02-03T23:30:00Z,27.8903,-94.0367,4.0,9.778553063,67.13187206,11.82,'11111222,11111222,11111222' 
TABS,ioos:station:wmo:42046:1,2015-02-04T00:00:00Z,27.8903,-94.0367,4.0,10.17853133,68.80450108,12.35,'11111222,11111222,11111222' 
TABS,ioos:station:wmo:42046:1,2015-02-04T00:30:00Z,27.8903,-94.0367,4.0,9.945059075,64.95490027,11.7,'11111222,11111222,11111222' 
TABS,ioos:station:wmo:42046:1,2015-02-04T01:00:00Z,27.8903,-94.0367,4.0,10.34177934,58.52281334,12.05,'11111222,11111222,11111222' 
TABS,ioos:station:wmo:42046:1,2015-02-04T01:30:00Z,27.8903,-94.0367,4.0,10.03619948,64.12394287,12.75,'11111222,11111222,11111222' 
TABS,ioos:station:wmo:42046:1,2015-02-04T02:00:00Z,27.8903,-94.0367,4.0,10.88192998,67.86579223,13.21,'11111222,11111222,11111222' 
TABS,ioos:station:wmo:42046:1,2015-02-04T02:30:00Z,27.8903,-94.0367,4.0,11.19590104,64.55609545,13.02,'11111222,11111222,11111222' 
TABS,ioos:station:wmo:42046:1,2015-02-04T03:00:00Z,27.8903,-94.0367,4.0,10.57095076,78.26448127,12.07,'11111222,11111222,11111222' 
TABS,ioos:station:wmo:42046:1,2015-02-04T03:30:00Z,27.8903,-94.0367,4.0,9.789024466,77.31208738,11.9,'11111222,11111222,11111222' 
TABS,ioos:station:wmo:42046:1,2015-02-04T04:00:00Z,27.8903,-94.0367,4.0,10.55919031,71.10137636,12.03,'11111222,11111222,11111222' 
TABS,ioos:station:wmo:42046:1,2015-02-04T04:30:00Z,27.8903,-94.0367,4.0,10.15451131,66.18609959,11.89,'11111222,11111222,11111222' 
TABS,ioos:station:wmo:42046:1,2015-02-04T05:00:00Z,27.8903,-94.0367,4.0,10.44396955,75.47105847,12.21,'11111222,11111222,11111222' 
TABS,ioos:station:wmo:42046:1,2015-02-04T05:30:00Z,27.8903,-94.0367,4.0,9.515040725,68.28767506,10.9,'11111222,11111222,11111222' 
TABS,ioos:station:wmo:42046:1,2015-02-04T06:00:00Z,27.8903,-94.0367,4.0,9.822184075,74.83147036,11.27,'11111222,11111222,11111222' 
TABS,ioos:station:wmo:42046:1,2015-02-04T06:30:00Z,27.8903,-94.0367,4.0,8.954914852,72.92041049,10.66,'11111222,11111222,11111222' 
TABS,ioos:station:wmo:42046:1,2015-02-04T07:00:00Z,27.8903,-94.0367,4.0,10.24033691,83.77679845,12.21,'11111222,11111222,11111222' 
TABS,ioos:station:wmo:42046:1,2015-02-04T07:30:00Z,27.8903,-94.0367,4.0,10.676816,84.08608919,12.26,'11111222,11111222,11111222' 
TABS,ioos:station:wmo:42046:1,2015-02-04T08:00:00Z,27.8903,-94.0367,4.0,8.911638458,73.17105248,10.8,'11111222,11111222,11111222' 
TABS,ioos:station:wmo:42046:1,2015-02-04T08:30:00Z,27.8903,-94.0367,4.0,10.24789735,81.30019534,12.09,'11111222,11111222,11111222' 
TABS,ioos:station:wmo:42046:1,2015-02-04T09:00:00Z,27.8903,-94.0367,4.0,11.03565585,83.28672484,12.36,'11111222,11111222,11111222' 
TABS,ioos:station:wmo:42046:1,2015-02-04T09:30:00Z,27.8903,-94.0367,4.0,10.69529336,83.66531808,13.09,'11111222,11111222,11111222' 
TABS,ioos:station:wmo:42046:1,2015-02-04T10:00:00Z,27.8903,-94.0367,4.0,11.15390963,81.80411466,13.1,'11111222,11111222,11111222' 
TABS,ioos:station:wmo:42046:1,2015-02-04T10:30:00Z,27.8903,-94.0367,4.0,9.52725039,83.18787104,11.18,'11111222,11111222,11111222' 
TABS,ioos:station:wmo:42046:1,2015-02-04T11:00:00Z,27.8903,-94.0367,4.0,10.27670181,79.06143348,12.44,'11111222,11111222,11111222' 
TABS,ioos:station:wmo:42046:1,2015-02-04T11:30:00Z,27.8903,-94.0367,4.0,8.974564056,71.68580563,10.85,'11111222,11111222,11111222' 
TABS,ioos:station:wmo:42046:1,2015-02-04T12:00:00Z,27.8903,-94.0367,4.0,9.234727933,68.46320961,10.66,'11111222,11111222,11111222' 
TABS,ioos:station:wmo:42046:1,2015-02-04T12:30:00Z,27.8903,-94.0367,4.0,7.839980867,49.70752555,9.51,'11111222,11111222,11111222' 
TABS,ioos:station:wmo:42046:1,2015-02-04T13:00:00Z,27.8903,-94.0367,4.0,9.042925412,48.09252604,10.4,'11111222,11111222,11111222' 
TABS,ioos:station:wmo:42046:1,2015-02-04T13:30:00Z,27.8903,-94.0367,4.0,9.496578331,48.84212845,11.03,'11111222,11111222,11111222' 
TABS,ioos:station:wmo:42046:1,2015-02-04T14:00:00Z,27.8903,-94.0367,4.0,10.76505922,38.6262588,12.35,'11111222,11111222,11111222' 
TABS,ioos:station:wmo:42046:1,2015-02-04T14:30:00Z,27.8903,-94.0367,4.0,10.18167963,49.22137198,11.57,'11111222,11111222,11111222' 
TABS,ioos:station:wmo:42046:1,2015-02-04T15:00:00Z,27.8903,-94.0367,4.0,12.72862915,59.08221317,15.23,'11111222,11111222,11111222' 
TABS,ioos:station:wmo:42046:1,2015-02-04T15:30:00Z,27.8903,-94.0367,4.0,11.91608157,58.59060098,14.16,'11111222,11111222,11111222' 
TABS,ioos:station:wmo:42046:1,2015-02-04T16:00:00Z,27.8903,-94.0367,4.0,11.19239474,53.61097423,13.06,'11111222,11111222,11111222' 
TABS,ioos:station:wmo:42046:1,2015-02-04T16:30:00Z,27.8903,-94.0367,4.0,10.55250681,66.13086548,12.29,'11111222,11111222,11111222' 
TABS,ioos:station:wmo:42046:1,2015-02-04T17:00:00Z,27.8903,-94.0367,4.0,10.74531061,70.19874224,12.4,'11111222,11111222,11111222' 
TABS,ioos:station:wmo:42046:1,2015-02-04T17:30:00Z,27.8903,-94.0367,4.0,11.00211798,78.73052556,12.56,'11111222,11111222,11111222' 
TABS,ioos:station:wmo:42046:1,2015-02-04T18:00:00Z,27.8903,-94.0367,4.0,9.855561881,77.99417799,11.45,'11111222,11111222,11111222' 
TABS,ioos:station:wmo:42046:1,2015-02-04T18:30:00Z,27.8903,-94.0367,4.0,9.234717104,72.34949614,11.38,'11111222,11111222,11111222' 